Time,TemperatureF,DewpointF,PressureIn,WindDirection,WindDirectionDegrees,WindSpeedMPH,WindSpeedGustMPH,Humidity,HourlyPrecipIn,Conditions,Clouds,dailyrainin,SoftwareType,DateUTC
2013-02-20 00:00:00,49.8,47.9,29.86,NW,306,4.0,9.0,93,0.00,,,0.06,Wunderground v.1.15,2013-02-20 05:00:00,
2013-02-20 00:01:00,49.8,47.9,29.86,NW,312,4.0,9.0,93,0.00,,,0.06,Wunderground v.1.15,2013-02-20 05:01:00,
2013-02-20 00:06:00,49.8,47.9,29.86,WNW,296,4.0,6.0,93,0.00,,,0.06,Wunderground v.1.15,2013-02-20 05:06:00,
2013-02-20 00:08:00,49.8,47.9,29.86,WNW,295,4.0,6.0,93,0.00,,,0.06,Wunderground v.1.15,2013-02-20 05:08:00,
2013-02-20 00:14:00,49.6,47.4,29.86,NW,313,3.0,4.0,92,0.00,,,0.00,Wunderground v.1.15,2013-02-20 05:14:00,
2013-02-20 00:20:00,49.5,47.3,29.86,WNW,299,3.0,4.0,92,0.00,,,0.00,Wunderground v.1.15,2013-02-20 05:20:00,
2013-02-20 00:26:00,49.4,47.2,29.86,NW,319,3.0,3.0,92,0.00,,,0.00,Wunderground v.1.15,2013-02-20 05:26:00,
2013-02-20 00:32:00,49.2,47.0,29.86,NW,310,3.0,3.0,92,0.00,,,0.00,Wunderground v.1.15,2013-02-20 05:32:00,
2013-02-20 00:38:00,49.1,46.6,29.86,NW,304,3.0,3.0,91,0.00,,,0.00,Wunderground v.1.15,2013-02-20 05:38:00,
2013-02-20 00:44:00,48.9,46.7,29.86,NW,311,3.0,3.0,92,0.00,,,0.00,Wunderground v.1.15,2013-02-20 05:44:00,
2013-02-20 00:50:00,48.8,46.3,29.86,NW,306,2.0,6.0,91,0.00,,,0.00,Wunderground v.1.15,2013-02-20 05:50:00,
2013-02-20 00:55:00,48.6,46.4,29.86,NW,325,3.0,5.0,92,0.00,,,0.00,Wunderground v.1.15,2013-02-20 05:55:00,
2013-02-20 01:00:00,48.6,46.1,29.86,NW,319,3.0,5.0,91,0.00,,,0.00,Wunderground v.1.15,2013-02-20 06:00:00,
2013-02-20 01:06:00,48.3,45.8,29.86,NW,321,3.0,4.0,91,0.00,,,0.00,Wunderground v.1.15,2013-02-20 06:06:00,
2013-02-20 01:11:00,48.2,45.7,29.86,NW,317,3.0,5.0,91,0.00,,,0.00,Wunderground v.1.15,2013-02-20 06:11:00,
2013-02-20 01:16:00,48.0,45.2,29.87,NW,317,3.0,3.0,90,0.00,,,0.00,Wunderground v.1.15,2013-02-20 06:16:00,
2013-02-20 01:21:00,47.9,45.1,29.87,NW,319,2.0,3.0,90,0.00,,,0.00,Wunderground v.1.15,2013-02-20 06:21:00,
2013-02-20 01:27:00,47.7,44.9,29.87,NW,308,2.0,4.0,90,0.00,,,0.00,Wunderground v.1.15,2013-02-20 06:27:00,
2013-02-20 01:32:00,47.6,44.5,29.87,NW,319,3.0,3.0,89,0.00,,,0.00,Wunderground v.1.15,2013-02-20 06:32:00,
2013-02-20 01:37:00,47.6,44.5,29.87,NW,306,3.0,4.0,89,0.00,,,0.00,Wunderground v.1.15,2013-02-20 06:37:00,
2013-02-20 01:43:00,47.4,44.3,29.88,NW,312,3.0,3.0,89,0.00,,,0.00,Wunderground v.1.15,2013-02-20 06:43:00,
2013-02-20 01:49:00,47.3,44.2,29.88,WNW,299,3.0,6.0,89,0.00,,,0.00,Wunderground v.1.15,2013-02-20 06:49:00,
2013-02-20 01:55:00,47.1,44.0,29.88,NW,304,3.0,4.0,89,0.00,,,0.00,Wunderground v.1.15,2013-02-20 06:55:00,
2013-02-20 02:00:00,47.0,43.6,29.88,NW,325,3.0,4.0,88,0.00,,,0.00,Wunderground v.1.15,2013-02-20 07:00:00,
2013-02-20 02:06:00,46.8,43.4,29.88,NW,313,3.0,7.0,88,0.00,,,0.00,Wunderground v.1.15,2013-02-20 07:06:00,
2013-02-20 02:12:00,46.7,43.3,29.88,WNW,303,3.0,4.0,88,0.00,,,0.00,Wunderground v.1.15,2013-02-20 07:12:00,
2013-02-20 02:17:00,46.5,42.8,29.88,NW,320,3.0,4.0,87,0.00,,,0.00,Wunderground v.1.15,2013-02-20 07:17:00,
2013-02-20 02:23:00,46.4,42.4,29.88,NNW,331,3.0,4.0,86,0.00,,,0.00,Wunderground v.1.15,2013-02-20 07:23:00,
2013-02-20 02:29:00,46.2,42.2,29.88,NNW,331,4.0,6.0,86,0.00,,,0.00,Wunderground v.1.15,2013-02-20 07:29:00,
2013-02-20 02:35:00,46.1,41.8,29.88,NNW,329,3.0,3.0,85,0.00,,,0.00,Wunderground v.1.15,2013-02-20 07:35:00,
2013-02-20 02:41:00,46.0,41.7,29.88,NNW,329,3.0,4.0,85,0.00,,,0.00,Wunderground v.1.15,2013-02-20 07:41:00,
2013-02-20 02:47:00,45.8,41.2,29.88,NNW,329,3.0,4.0,84,0.00,,,0.00,Wunderground v.1.15,2013-02-20 07:47:00,
2013-02-20 02:53:00,45.7,41.1,29.88,NNW,329,3.0,3.0,84,0.00,,,0.00,Wunderground v.1.15,2013-02-20 07:53:00,
2013-02-20 02:59:00,45.4,40.8,29.88,NNW,329,2.0,3.0,84,0.00,,,0.00,Wunderground v.1.15,2013-02-20 07:59:00,
2013-02-20 03:05:00,45.2,40.7,29.88,NNW,329,2.0,4.0,84,0.00,,,0.00,Wunderground v.1.15,2013-02-20 08:05:00,
2013-02-20 03:11:00,44.9,40.4,29.88,NNW,329,2.0,4.0,84,0.00,,,0.00,Wunderground v.1.15,2013-02-20 08:11:00,
2013-02-20 03:17:00,44.8,40.3,29.88,NNW,329,3.0,3.0,84,0.00,,,0.00,Wunderground v.1.15,2013-02-20 08:17:00,
2013-02-20 03:23:00,44.6,40.1,29.88,NNW,329,2.0,3.0,84,0.00,,,0.00,Wunderground v.1.15,2013-02-20 08:23:00,
2013-02-20 03:29:00,44.3,39.8,29.89,NNW,329,2.0,3.0,84,0.00,,,0.00,Wunderground v.1.15,2013-02-20 08:29:00,
2013-02-20 03:35:00,44.1,39.6,29.89,NNW,329,1.0,3.0,84,0.00,,,0.00,Wunderground v.1.15,2013-02-20 08:35:00,
2013-02-20 03:41:00,43.9,39.7,29.89,NNW,329,1.0,3.0,85,0.00,,,0.00,Wunderground v.1.15,2013-02-20 08:41:00,
2013-02-20 03:47:00,43.8,39.6,29.89,NNW,329,1.0,3.0,85,0.00,,,0.00,Wunderground v.1.15,2013-02-20 08:47:00,
2013-02-20 03:53:00,43.5,39.3,29.89,NNW,329,0.0,3.0,85,0.00,,,0.00,Wunderground v.1.15,2013-02-20 08:53:00,
2013-02-20 03:59:00,43.2,39.3,29.89,NNW,329,0.0,3.0,86,0.00,,,0.00,Wunderground v.1.15,2013-02-20 08:59:00,
2013-02-20 04:04:00,43.1,39.2,29.89,NNW,329,0.0,3.0,86,0.00,,,0.00,Wunderground v.1.15,2013-02-20 09:04:00,
2013-02-20 04:10:00,42.8,39.2,29.89,NNW,329,0.0,3.0,87,0.00,,,0.00,Wunderground v.1.15,2013-02-20 09:10:00,
2013-02-20 04:15:00,42.6,39.0,29.89,NNW,329,0.0,3.0,87,0.00,,,0.00,Wunderground v.1.15,2013-02-20 09:15:00,
2013-02-20 04:21:00,42.3,38.7,29.89,NNW,329,0.0,3.0,87,0.00,,,0.00,Wunderground v.1.15,2013-02-20 09:21:00,
2013-02-20 04:27:00,42.2,38.9,29.89,NNW,329,0.0,3.0,88,0.00,,,0.00,Wunderground v.1.15,2013-02-20 09:27:00,
2013-02-20 04:33:00,41.9,38.6,29.90,NNW,329,0.0,3.0,88,0.00,,,0.00,Wunderground v.1.15,2013-02-20 09:33:00,
2013-02-20 04:39:00,41.6,38.3,29.90,NNW,329,0.0,3.0,88,0.00,,,0.00,Wunderground v.1.15,2013-02-20 09:39:00,
2013-02-20 04:45:00,41.5,38.5,29.91,NNW,329,0.0,3.0,89,0.00,,,0.00,Wunderground v.1.15,2013-02-20 09:45:00,
2013-02-20 04:51:00,41.2,38.2,29.91,NNW,329,0.0,3.0,89,0.00,,,0.00,Wunderground v.1.15,2013-02-20 09:51:00,
2013-02-20 04:57:00,40.9,37.9,29.91,NNW,329,0.0,3.0,89,0.00,,,0.00,Wunderground v.1.15,2013-02-20 09:57:00,
2013-02-20 05:03:00,40.6,37.6,29.91,NNW,329,0.0,3.0,89,0.00,,,0.00,Wunderground v.1.15,2013-02-20 10:03:00,
2013-02-20 05:09:00,40.2,37.2,29.91,NNW,329,0.0,3.0,89,0.00,,,0.00,Wunderground v.1.15,2013-02-20 10:09:00,
2013-02-20 05:15:00,39.8,37.1,29.92,NNW,329,0.0,3.0,90,0.00,,,0.00,Wunderground v.1.15,2013-02-20 10:15:00,
2013-02-20 05:21:00,39.6,37.2,29.92,NNW,329,0.0,3.0,91,0.00,,,0.00,Wunderground v.1.15,2013-02-20 10:21:00,
2013-02-20 05:27:00,39.1,36.7,29.92,NNW,329,0.0,3.0,91,0.00,,,0.00,Wunderground v.1.15,2013-02-20 10:27:00,
2013-02-20 05:33:00,38.9,36.8,29.92,NNW,329,0.0,3.0,92,0.00,,,0.00,Wunderground v.1.15,2013-02-20 10:33:00,
2013-02-20 05:39:00,38.9,36.8,29.92,NNW,329,0.0,3.0,92,0.00,,,0.00,Wunderground v.1.15,2013-02-20 10:39:00,
2013-02-20 05:45:00,38.8,36.7,29.92,NNW,329,0.0,3.0,92,0.00,,,0.00,Wunderground v.1.15,2013-02-20 10:45:00,
2013-02-20 05:50:00,38.6,36.8,29.92,NNW,329,0.0,3.0,93,0.00,,,0.00,Wunderground v.1.15,2013-02-20 10:50:00,
2013-02-20 05:56:00,38.5,36.7,29.92,NNW,329,0.0,3.0,93,0.00,,,0.00,Wunderground v.1.15,2013-02-20 10:56:00,
2013-02-20 06:02:00,38.3,36.5,29.92,NNW,329,0.0,3.0,93,0.00,,,0.00,Wunderground v.1.15,2013-02-20 11:02:00,
2013-02-20 06:07:00,38.2,36.4,29.92,NNW,329,0.0,3.0,93,0.00,,,0.00,Wunderground v.1.15,2013-02-20 11:07:00,
2013-02-20 06:13:00,38.0,36.2,29.93,NNW,329,0.0,3.0,93,0.00,,,0.00,Wunderground v.1.15,2013-02-20 11:13:00,
2013-02-20 06:19:00,37.6,35.8,29.93,NNW,329,0.0,3.0,93,0.00,,,0.00,Wunderground v.1.15,2013-02-20 11:19:00,
2013-02-20 06:25:00,37.2,35.4,29.93,NNW,329,0.0,3.0,93,0.00,,,0.00,Wunderground v.1.15,2013-02-20 11:25:00,
2013-02-20 06:31:00,36.9,35.1,29.94,NNW,329,0.0,3.0,93,0.00,,,0.00,Wunderground v.1.15,2013-02-20 11:31:00,
2013-02-20 06:37:00,36.8,35.0,29.94,NNW,329,0.0,3.0,93,0.00,,,0.00,Wunderground v.1.15,2013-02-20 11:37:00,
2013-02-20 06:43:00,36.5,34.7,29.94,NNW,329,0.0,3.0,93,0.00,,,0.00,Wunderground v.1.15,2013-02-20 11:43:00,
2013-02-20 06:49:00,36.2,34.4,29.94,NNW,329,0.0,3.0,93,0.00,,,0.00,Wunderground v.1.15,2013-02-20 11:49:00,
2013-02-20 06:55:00,36.0,34.2,29.94,NNW,329,0.0,3.0,93,0.00,,,0.00,Wunderground v.1.15,2013-02-20 11:55:00,
2013-02-20 07:01:00,35.9,34.1,29.95,NNW,329,0.0,3.0,93,0.00,,,0.00,Wunderground v.1.15,2013-02-20 12:01:00,
2013-02-20 07:07:00,35.5,33.7,29.95,NNW,329,0.0,3.0,93,0.00,,,0.00,Wunderground v.1.15,2013-02-20 12:07:00,
2013-02-20 07:13:00,35.3,33.5,29.96,NNW,329,0.0,3.0,93,0.00,,,0.00,Wunderground v.1.15,2013-02-20 12:13:00,
2013-02-20 07:19:00,35.2,33.4,29.96,NNW,329,0.0,3.0,93,0.00,,,0.00,Wunderground v.1.15,2013-02-20 12:19:00,
2013-02-20 07:25:00,35.0,33.2,29.96,NNW,329,0.0,3.0,93,0.00,,,0.00,Wunderground v.1.15,2013-02-20 12:25:00,
2013-02-20 07:30:00,35.0,33.2,29.97,NNW,329,0.0,3.0,93,0.00,,,0.00,Wunderground v.1.15,2013-02-20 12:30:00,
2013-02-20 07:36:00,35.0,33.2,29.97,NNW,329,0.0,3.0,93,0.00,,,0.00,Wunderground v.1.15,2013-02-20 12:36:00,
2013-02-20 07:42:00,35.0,33.2,29.97,NNW,329,0.0,3.0,93,0.00,,,0.00,Wunderground v.1.15,2013-02-20 12:42:00,
2013-02-20 07:48:00,35.0,33.4,29.97,NNW,329,0.0,3.0,94,0.00,,,0.00,Wunderground v.1.15,2013-02-20 12:48:00,
2013-02-20 07:54:00,35.3,34.0,29.97,NNW,329,0.0,3.0,95,0.00,,,0.00,Wunderground v.1.15,2013-02-20 12:54:00,
2013-02-20 08:00:00,36.2,34.9,29.97,NNW,329,0.0,3.0,95,0.00,,,0.00,Wunderground v.1.15,2013-02-20 13:00:00,
2013-02-20 08:06:00,36.8,35.5,29.97,NNW,329,0.0,3.0,95,0.00,,,0.00,Wunderground v.1.15,2013-02-20 13:06:00,
2013-02-20 08:12:00,37.5,35.9,29.97,NNW,329,0.0,3.0,94,0.00,,,0.00,Wunderground v.1.15,2013-02-20 13:12:00,
2013-02-20 08:18:00,38.2,36.4,29.98,NNW,329,0.0,3.0,93,0.00,,,0.00,Wunderground v.1.15,2013-02-20 13:18:00,
2013-02-20 08:24:00,38.8,36.1,29.98,NNW,329,1.0,3.0,90,0.00,,,0.00,Wunderground v.1.15,2013-02-20 13:24:00,
2013-02-20 08:30:00,39.5,35.7,29.98,NNW,329,1.0,3.0,86,0.00,,,0.00,Wunderground v.1.15,2013-02-20 13:30:00,
2013-02-20 08:36:00,39.9,35.5,29.98,NNW,329,0.0,3.0,84,0.00,,,0.00,Wunderground v.1.15,2013-02-20 13:36:00,
2013-02-20 08:42:00,40.3,34.9,29.98,NNW,329,0.0,3.0,81,0.00,,,0.00,Wunderground v.1.15,2013-02-20 13:42:00,
2013-02-20 08:48:00,41.1,33.8,29.99,NNE,24,1.0,3.0,75,0.00,,,0.00,Wunderground v.1.15,2013-02-20 13:48:00,
2013-02-20 08:54:00,41.8,33.4,29.99,NNE,15,1.0,3.0,72,0.00,,,0.00,Wunderground v.1.15,2013-02-20 13:54:00,
2013-02-20 09:00:00,42.2,32.8,29.99,North,5,1.0,3.0,69,0.00,,,0.00,Wunderground v.1.15,2013-02-20 14:00:00,
2013-02-20 09:06:00,42.5,31.6,29.99,North,5,1.0,3.0,65,0.00,,,0.00,Wunderground v.1.15,2013-02-20 14:06:00,
2013-02-20 09:12:00,43.2,32.2,29.99,NNE,17,1.0,3.0,65,0.00,,,0.00,Wunderground v.1.15,2013-02-20 14:12:00,
2013-02-20 09:18:00,43.6,32.6,29.99,NNE,17,1.0,3.0,65,0.00,,,0.00,Wunderground v.1.15,2013-02-20 14:18:00,
2013-02-20 09:23:00,44.2,32.4,29.99,NNE,17,0.0,3.0,63,0.00,,,0.00,Wunderground v.1.15,2013-02-20 14:23:00,
2013-02-20 09:29:00,44.9,32.3,29.99,WNW,289,1.0,4.0,61,0.00,,,0.00,Wunderground v.1.15,2013-02-20 14:29:00,
2013-02-20 09:35:00,45.7,31.8,29.99,NE,55,1.0,5.0,58,0.00,,,0.00,Wunderground v.1.15,2013-02-20 14:35:00,
2013-02-20 09:41:00,46.2,29.5,29.99,NE,40,1.0,5.0,52,0.00,,,0.00,Wunderground v.1.15,2013-02-20 14:41:00,
2013-02-20 09:47:00,47.0,30.3,30.00,ENE,61,1.0,3.0,52,0.00,,,0.00,Wunderground v.1.15,2013-02-20 14:47:00,
2013-02-20 09:52:00,47.3,29.1,30.00,ENE,61,1.0,1.0,49,0.00,,,0.00,Wunderground v.1.15,2013-02-20 14:52:00,
2013-02-20 09:58:00,46.8,27.1,29.99,North,360,1.0,3.0,46,0.00,,,0.00,Wunderground v.1.15,2013-02-20 14:58:00,
2013-02-20 10:04:00,46.5,27.8,29.99,North,355,2.0,3.0,48,0.00,,,0.00,Wunderground v.1.15,2013-02-20 15:04:00,
2013-02-20 10:09:00,46.5,26.8,29.99,ESE,119,2.0,3.0,46,0.00,,,0.00,Wunderground v.1.15,2013-02-20 15:09:00,
2013-02-20 10:15:00,47.1,26.8,29.99,NNE,21,1.0,3.0,45,0.00,,,0.00,Wunderground v.1.15,2013-02-20 15:15:00,
2013-02-20 10:21:00,47.3,25.9,29.99,NW,325,2.0,3.0,43,0.00,,,0.00,Wunderground v.1.15,2013-02-20 15:21:00,
2013-02-20 10:27:00,47.4,26.0,29.99,NNW,338,2.0,3.0,43,0.00,,,0.00,Wunderground v.1.15,2013-02-20 15:27:00,
2013-02-20 10:33:00,47.7,23.9,29.99,NNW,338,2.0,4.0,39,0.00,,,0.00,Wunderground v.1.15,2013-02-20 15:33:00,
2013-02-20 10:39:00,48.0,22.9,29.99,NNW,344,2.0,5.0,37,0.00,,,0.00,Wunderground v.1.15,2013-02-20 15:39:00,
2013-02-20 10:45:00,48.9,25.6,29.98,ESE,103,1.0,3.0,40,0.00,,,0.00,Wunderground v.1.15,2013-02-20 15:45:00,
2013-02-20 10:51:00,49.6,26.2,29.98,North,355,1.0,3.0,40,0.00,,,0.00,Wunderground v.1.15,2013-02-20 15:51:00,
2013-02-20 10:57:00,50.1,24.2,29.98,NNW,340,1.0,3.0,36,0.00,,,0.00,Wunderground v.1.15,2013-02-20 15:57:00,
2013-02-20 11:03:00,50.8,26.1,29.99,ENE,57,2.0,3.0,38,0.00,,,0.00,Wunderground v.1.15,2013-02-20 16:03:00,
2013-02-20 11:08:00,51.6,24.8,29.99,NNE,33,1.0,3.0,35,0.00,,,0.00,Wunderground v.1.15,2013-02-20 16:08:00,
2013-02-20 11:13:00,51.9,25.8,29.99,NNE,22,1.0,3.0,36,0.00,,,0.00,Wunderground v.1.15,2013-02-20 16:13:00,
2013-02-20 11:19:00,51.4,24.6,29.99,NW,314,2.0,4.0,35,0.00,,,0.00,Wunderground v.1.15,2013-02-20 16:19:00,
2013-02-20 11:25:00,50.4,24.4,29.99,NW,325,3.0,3.0,36,0.00,,,0.00,Wunderground v.1.15,2013-02-20 16:25:00,
2013-02-20 11:31:00,50.5,24.5,29.98,NNE,26,2.0,3.0,36,0.00,,,0.00,Wunderground v.1.15,2013-02-20 16:31:00,
2013-02-20 11:37:00,51.3,23.1,29.98,NNW,345,2.0,4.0,33,0.00,,,0.00,Wunderground v.1.15,2013-02-20 16:37:00,
2013-02-20 11:43:00,51.3,22.4,29.97,WNW,289,3.0,4.0,32,0.00,,,0.00,Wunderground v.1.15,2013-02-20 16:43:00,
2013-02-20 11:49:00,51.3,21.6,29.97,WNW,298,4.0,5.0,31,0.00,,,0.00,Wunderground v.1.15,2013-02-20 16:49:00,
2013-02-20 11:55:00,52.2,22.4,29.97,West,280,2.0,4.0,31,0.00,,,0.00,Wunderground v.1.15,2013-02-20 16:55:00,
2013-02-20 12:01:00,52.3,20.9,29.97,West,262,3.0,4.0,29,0.00,,,0.00,Wunderground v.1.15,2013-02-20 17:01:00,
2013-02-20 12:07:00,52.8,23.0,29.97,WNW,298,3.0,3.0,31,0.00,,,0.00,Wunderground v.1.15,2013-02-20 17:07:00,
2013-02-20 12:13:00,52.8,20.5,29.95,NNW,343,3.0,3.0,28,0.00,,,0.00,Wunderground v.1.15,2013-02-20 17:13:00,
2013-02-20 12:19:00,52.8,20.5,29.95,NNE,12,3.0,4.0,28,0.00,,,0.00,Wunderground v.1.15,2013-02-20 17:19:00,
2013-02-20 12:25:00,53.2,20.9,29.95,NNW,348,2.0,3.0,28,0.00,,,0.00,Wunderground v.1.15,2013-02-20 17:25:00,
2013-02-20 12:30:00,53.8,20.6,29.95,NNW,344,1.0,4.0,27,0.00,,,0.00,Wunderground v.1.15,2013-02-20 17:30:00,
2013-02-20 12:36:00,53.8,21.4,29.95,NW,317,2.0,4.0,28,0.00,,,0.00,Wunderground v.1.15,2013-02-20 17:36:00,
2013-02-20 12:42:00,54.1,24.1,29.95,NNW,329,2.0,3.0,31,0.00,,,0.00,Wunderground v.1.15,2013-02-20 17:42:00,
2013-02-20 12:47:00,54.4,22.8,29.94,North,355,2.0,3.0,29,0.00,,,0.00,Wunderground v.1.15,2013-02-20 17:47:00,
2013-02-20 12:53:00,54.5,23.7,29.94,North,351,1.0,3.0,30,0.00,,,0.00,Wunderground v.1.15,2013-02-20 17:53:00,
2013-02-20 12:58:00,55.0,23.3,29.92,North,355,1.0,3.0,29,0.00,,,0.00,Wunderground v.1.15,2013-02-20 17:58:00,
2013-02-20 13:04:00,55.7,27.0,29.92,SSE,159,1.0,3.0,33,0.00,,,0.00,Wunderground v.1.15,2013-02-20 18:04:00,
2013-02-20 13:10:00,56.0,30.1,29.92,ESE,118,2.0,6.0,37,0.00,,,0.00,Wunderground v.1.15,2013-02-20 18:10:00,
2013-02-20 13:15:00,56.2,31.5,29.92,SE,146,4.0,5.0,39,0.00,,,0.00,Wunderground v.1.15,2013-02-20 18:15:00,
2013-02-20 13:21:00,56.0,30.1,29.92,SE,141,4.0,5.0,37,0.00,,,0.00,Wunderground v.1.15,2013-02-20 18:21:00,
2013-02-20 13:27:00,55.3,30.7,29.92,SSE,158,5.0,7.0,39,0.00,,,0.00,Wunderground v.1.15,2013-02-20 18:27:00,
2013-02-20 13:33:00,54.7,30.8,29.92,SE,138,4.0,5.0,40,0.00,,,0.00,Wunderground v.1.15,2013-02-20 18:33:00,
2013-02-20 13:39:00,54.4,31.2,29.92,South,181,4.0,6.0,41,0.00,,,0.00,Wunderground v.1.15,2013-02-20 18:39:00,
2013-02-20 13:45:00,54.7,30.2,29.92,SW,224,4.0,6.0,39,0.00,,,0.00,Wunderground v.1.15,2013-02-20 18:45:00,
2013-02-20 13:51:00,54.2,30.4,29.92,SSE,159,4.0,6.0,40,0.00,,,0.00,Wunderground v.1.15,2013-02-20 18:51:00,
2013-02-20 13:57:00,54.5,31.3,29.92,SSW,192,4.0,4.0,41,0.00,,,0.00,Wunderground v.1.15,2013-02-20 18:57:00,
2013-02-20 14:03:00,54.7,30.8,29.91,South,178,3.0,6.0,40,0.00,,,0.00,Wunderground v.1.15,2013-02-20 19:03:00,
2013-02-20 14:08:00,54.8,29.7,29.91,SE,136,4.0,6.0,38,0.00,,,0.00,Wunderground v.1.15,2013-02-20 19:08:00,
2013-02-20 14:14:00,55.1,29.3,29.90,SSW,208,4.0,6.0,37,0.00,,,0.00,Wunderground v.1.15,2013-02-20 19:14:00,
2013-02-20 14:20:00,55.7,29.8,29.90,SSW,194,3.0,6.0,37,0.00,,,0.00,Wunderground v.1.15,2013-02-20 19:20:00,
2013-02-20 14:26:00,55.7,29.1,29.90,SSW,211,3.0,6.0,36,0.00,,,0.00,Wunderground v.1.15,2013-02-20 19:26:00,
2013-02-20 14:32:00,55.4,29.5,29.89,SW,228,4.0,4.0,37,0.00,,,0.00,Wunderground v.1.15,2013-02-20 19:32:00,
2013-02-20 14:38:00,55.3,29.4,29.89,SE,133,3.0,6.0,37,0.00,,,0.00,Wunderground v.1.15,2013-02-20 19:38:00,
2013-02-20 14:44:00,55.4,28.9,29.89,SSW,199,3.0,5.0,36,0.00,,,0.00,Wunderground v.1.15,2013-02-20 19:44:00,
2013-02-20 14:50:00,55.7,30.5,29.89,South,172,4.0,10.0,38,0.00,,,0.00,Wunderground v.1.15,2013-02-20 19:50:00,
2013-02-20 14:55:00,55.6,29.7,29.89,SSE,161,5.0,10.0,37,0.00,,,0.00,Wunderground v.1.15,2013-02-20 19:55:00,
2013-02-20 15:01:00,55.6,29.7,29.90,South,188,4.0,10.0,37,0.00,,,0.00,Wunderground v.1.15,2013-02-20 20:01:00,
2013-02-20 15:07:00,55.1,30.6,29.90,SSW,209,4.0,5.0,39,0.00,,,0.00,Wunderground v.1.15,2013-02-20 20:07:00,
2013-02-20 15:13:00,54.8,30.3,29.89,SSW,196,4.0,4.0,39,0.00,,,0.00,Wunderground v.1.15,2013-02-20 20:13:00,
2013-02-20 15:19:00,55.3,30.7,29.89,SW,220,3.0,4.0,39,0.00,,,0.00,Wunderground v.1.15,2013-02-20 20:19:00,
2013-02-20 15:25:00,56.0,30.1,29.89,SW,216,2.0,5.0,37,0.00,,,0.00,Wunderground v.1.15,2013-02-20 20:25:00,
2013-02-20 15:31:00,56.3,30.3,29.90,South,180,2.0,5.0,37,0.00,,,0.00,Wunderground v.1.15,2013-02-20 20:31:00,
2013-02-20 15:37:00,56.5,29.1,29.90,South,191,3.0,5.0,35,0.00,,,0.00,Wunderground v.1.15,2013-02-20 20:37:00,
2013-02-20 15:43:00,55.6,29.0,29.90,SW,216,4.0,5.0,36,0.00,,,0.00,Wunderground v.1.15,2013-02-20 20:43:00,
2013-02-20 15:48:00,54.8,29.7,29.90,SSW,200,4.0,6.0,38,0.00,,,0.00,Wunderground v.1.15,2013-02-20 20:48:00,
2013-02-20 15:54:00,54.4,29.3,29.90,South,182,4.0,7.0,38,0.00,,,0.00,Wunderground v.1.15,2013-02-20 20:54:00,
2013-02-20 16:00:00,54.2,29.8,29.90,SSW,197,5.0,7.0,39,0.00,,,0.00,Wunderground v.1.15,2013-02-20 21:00:00,
2013-02-20 16:06:00,53.6,29.2,29.90,SW,221,4.0,9.0,39,0.00,,,0.00,Wunderground v.1.15,2013-02-20 21:06:00,
2013-02-20 16:12:00,53.2,29.5,29.90,SW,232,4.0,4.0,40,0.00,,,0.00,Wunderground v.1.15,2013-02-20 21:12:00,
2013-02-20 16:18:00,52.9,29.2,29.91,SSW,195,4.0,9.0,40,0.00,,,0.00,Wunderground v.1.15,2013-02-20 21:18:00,
2013-02-20 16:23:00,52.9,29.2,29.91,SSW,204,4.0,5.0,40,0.00,,,0.00,Wunderground v.1.15,2013-02-20 21:23:00,
2013-02-20 16:29:00,53.1,30.0,29.91,South,175,2.0,5.0,41,0.00,,,0.00,Wunderground v.1.15,2013-02-20 21:29:00,
2013-02-20 16:35:00,52.9,29.8,29.91,SSW,192,2.0,6.0,41,0.00,,,0.00,Wunderground v.1.15,2013-02-20 21:35:00,
2013-02-20 16:40:00,52.8,29.7,29.91,SW,228,3.0,6.0,41,0.00,,,0.00,Wunderground v.1.15,2013-02-20 21:40:00,
2013-02-20 16:46:00,52.9,30.4,29.91,SSW,207,2.0,5.0,42,0.00,,,0.00,Wunderground v.1.15,2013-02-20 21:46:00,
2013-02-20 16:51:00,53.1,30.0,29.91,WSW,245,3.0,6.0,41,0.00,,,0.00,Wunderground v.1.15,2013-02-20 21:51:00,
2013-02-20 16:57:00,52.9,29.8,29.91,SW,223,3.0,3.0,41,0.00,,,0.00,Wunderground v.1.15,2013-02-20 21:57:00,
2013-02-20 17:03:00,52.6,30.1,29.91,SSW,213,2.0,5.0,42,0.00,,,0.00,Wunderground v.1.15,2013-02-20 22:03:00,
2013-02-20 17:08:00,52.3,30.4,29.91,SW,234,2.0,6.0,43,0.00,,,0.00,Wunderground v.1.15,2013-02-20 22:08:00,
2013-02-20 17:14:00,51.7,31.0,29.91,SW,219,2.0,3.0,45,0.00,,,0.00,Wunderground v.1.15,2013-02-20 22:14:00,
2013-02-20 17:20:00,51.4,31.8,29.91,SW,219,1.0,3.0,47,0.00,,,0.00,Wunderground v.1.15,2013-02-20 22:20:00,
2013-02-20 17:26:00,51.1,32.1,29.91,SW,219,1.0,3.0,48,0.00,,,0.00,Wunderground v.1.15,2013-02-20 22:26:00,
2013-02-20 17:31:00,50.8,32.8,29.90,SW,219,1.0,3.0,50,0.00,,,0.00,Wunderground v.1.15,2013-02-20 22:31:00,
2013-02-20 17:37:00,50.5,33.0,29.90,SW,231,2.0,5.0,51,0.00,,,0.00,Wunderground v.1.15,2013-02-20 22:37:00,
2013-02-20 17:43:00,50.2,33.7,29.91,West,275,2.0,4.0,53,0.00,,,0.00,Wunderground v.1.15,2013-02-20 22:43:00,
2013-02-20 17:49:00,50.1,34.1,29.91,SW,229,2.0,4.0,54,0.00,,,0.00,Wunderground v.1.15,2013-02-20 22:49:00,
2013-02-20 17:55:00,49.9,34.4,29.91,SW,229,1.0,3.0,55,0.00,,,0.00,Wunderground v.1.15,2013-02-20 22:55:00,
2013-02-20 18:01:00,49.8,34.3,29.92,SW,229,1.0,3.0,55,0.00,,,0.00,Wunderground v.1.15,2013-02-20 23:01:00,
2013-02-20 18:07:00,49.6,34.5,29.92,SW,229,0.0,3.0,56,0.00,,,0.00,Wunderground v.1.15,2013-02-20 23:07:00,
2013-02-20 18:13:00,49.6,35.0,29.92,SW,229,0.0,3.0,57,0.00,,,0.00,Wunderground v.1.15,2013-02-20 23:13:00,
2013-02-20 18:19:00,49.5,35.3,29.92,SW,229,0.0,3.0,58,0.00,,,0.00,Wunderground v.1.15,2013-02-20 23:19:00,
2013-02-20 18:25:00,49.4,35.7,29.92,SW,229,0.0,3.0,59,0.00,,,0.00,Wunderground v.1.15,2013-02-20 23:25:00,
2013-02-20 18:31:00,49.1,35.8,29.93,SW,229,0.0,3.0,60,0.00,,,0.00,Wunderground v.1.15,2013-02-20 23:31:00,
2013-02-20 18:37:00,48.9,35.6,29.93,SW,229,0.0,3.0,60,0.00,,,0.00,Wunderground v.1.15,2013-02-20 23:37:00,
2013-02-20 18:43:00,48.9,36.0,29.94,SW,229,0.0,3.0,61,0.00,,,0.00,Wunderground v.1.15,2013-02-20 23:43:00,
2013-02-20 18:49:00,48.9,36.4,29.94,SW,229,0.0,3.0,62,0.00,,,0.00,Wunderground v.1.15,2013-02-20 23:49:00,
2013-02-20 18:55:00,48.8,35.9,29.94,SW,229,0.0,3.0,61,0.00,,,0.00,Wunderground v.1.15,2013-02-20 23:55:00,
2013-02-20 19:00:00,48.8,35.9,29.95,SW,229,0.0,3.0,61,0.00,,,0.00,Wunderground v.1.15,2013-02-21 00:00:00,
2013-02-20 19:05:00,48.8,36.8,29.95,SW,229,0.0,3.0,63,0.00,,,0.00,Wunderground v.1.15,2013-02-21 00:05:00,
2013-02-20 19:10:00,48.6,35.7,29.95,SW,229,0.0,3.0,61,0.00,,,0.00,Wunderground v.1.15,2013-02-21 00:10:00,
2013-02-20 19:16:00,48.5,36.1,29.95,SW,229,0.0,3.0,62,0.00,,,0.00,Wunderground v.1.15,2013-02-21 00:16:00,
2013-02-20 19:22:00,48.5,36.1,29.95,SW,229,0.0,3.0,62,0.00,,,0.00,Wunderground v.1.15,2013-02-21 00:22:00,
2013-02-20 19:28:00,48.3,35.9,29.95,SW,229,0.0,3.0,62,0.00,,,0.00,Wunderground v.1.15,2013-02-21 00:28:00,
2013-02-20 19:34:00,48.3,35.9,29.95,SW,229,0.0,3.0,62,0.00,,,0.00,Wunderground v.1.15,2013-02-21 00:34:00,
2013-02-20 19:40:00,48.3,36.3,29.95,SW,229,0.0,3.0,63,0.00,,,0.00,Wunderground v.1.15,2013-02-21 00:40:00,
2013-02-20 19:46:00,48.2,36.2,29.95,SW,229,0.0,3.0,63,0.00,,,0.00,Wunderground v.1.15,2013-02-21 00:46:00,
2013-02-20 19:51:00,48.0,36.0,29.95,SW,229,0.0,3.0,63,0.00,,,0.00,Wunderground v.1.15,2013-02-21 00:51:00,
2013-02-20 19:57:00,48.0,36.4,29.95,SW,229,0.0,3.0,64,0.00,,,0.00,Wunderground v.1.15,2013-02-21 00:57:00,
2013-02-20 20:03:00,48.0,36.8,29.95,SW,229,0.0,3.0,65,0.00,,,0.00,Wunderground v.1.15,2013-02-21 01:03:00,
2013-02-20 20:09:00,47.9,36.3,29.95,SW,229,0.0,3.0,64,0.00,,,0.00,Wunderground v.1.15,2013-02-21 01:09:00,
2013-02-20 20:15:00,47.9,36.7,29.96,SW,229,0.0,3.0,65,0.00,,,0.00,Wunderground v.1.15,2013-02-21 01:15:00,
2013-02-20 20:21:00,47.9,36.7,29.96,SW,229,0.0,3.0,65,0.00,,,0.00,Wunderground v.1.15,2013-02-21 01:21:00,
2013-02-20 20:27:00,47.9,36.3,29.96,SW,229,0.0,3.0,64,0.00,,,0.00,Wunderground v.1.15,2013-02-21 01:27:00,
2013-02-20 20:33:00,47.7,35.7,29.95,SW,229,0.0,3.0,63,0.00,,,0.00,Wunderground v.1.15,2013-02-21 01:33:00,
2013-02-20 20:38:00,47.9,35.9,29.95,SW,229,0.0,3.0,63,0.00,,,0.00,Wunderground v.1.15,2013-02-21 01:38:00,
2013-02-20 20:43:00,47.9,36.7,29.94,SW,229,0.0,3.0,65,0.00,,,0.00,Wunderground v.1.15,2013-02-21 01:43:00,
2013-02-20 20:49:00,47.9,36.3,29.94,SW,229,0.0,3.0,64,0.00,,,0.00,Wunderground v.1.15,2013-02-21 01:49:00,
2013-02-20 20:55:00,47.9,36.7,29.94,SW,229,0.0,3.0,65,0.00,,,0.00,Wunderground v.1.15,2013-02-21 01:55:00,
2013-02-20 21:01:00,47.9,37.1,29.93,SW,229,0.0,3.0,66,0.00,,,0.00,Wunderground v.1.15,2013-02-21 02:01:00,
2013-02-20 21:07:00,47.7,36.9,29.93,SW,229,0.0,3.0,66,0.00,,,0.00,Wunderground v.1.15,2013-02-21 02:07:00,
2013-02-20 21:13:00,47.6,36.8,29.92,SW,229,0.0,3.0,66,0.00,,,0.00,Wunderground v.1.15,2013-02-21 02:13:00,
2013-02-20 21:19:00,47.6,37.6,29.92,SW,229,0.0,3.0,68,0.00,,,0.00,Wunderground v.1.15,2013-02-21 02:19:00,
2013-02-20 21:25:00,47.3,37.6,29.92,SW,229,0.0,3.0,69,0.00,,,0.00,Wunderground v.1.15,2013-02-21 02:25:00,
2013-02-20 21:31:00,47.0,37.7,29.93,SW,229,0.0,3.0,70,0.00,,,0.00,Wunderground v.1.15,2013-02-21 02:31:00,
2013-02-20 21:37:00,46.7,36.7,29.93,SW,229,0.0,3.0,68,0.00,,,0.00,Wunderground v.1.15,2013-02-21 02:37:00,
2013-02-20 21:43:00,46.7,37.1,29.94,SW,229,0.0,3.0,69,0.00,,,0.00,Wunderground v.1.15,2013-02-21 02:43:00,
2013-02-20 21:49:00,46.7,37.4,29.94,SW,229,0.0,3.0,70,0.00,,,0.00,Wunderground v.1.15,2013-02-21 02:49:00,
2013-02-20 21:54:00,46.7,37.8,29.94,SW,229,0.0,3.0,71,0.00,,,0.00,Wunderground v.1.15,2013-02-21 02:54:00,
2013-02-20 22:00:00,46.5,36.9,29.95,SW,229,0.0,3.0,69,0.00,,,0.00,Wunderground v.1.15,2013-02-21 03:00:00,
2013-02-20 22:06:00,46.5,36.9,29.95,SW,229,0.0,3.0,69,0.00,,,0.00,Wunderground v.1.15,2013-02-21 03:06:00,
2013-02-20 22:12:00,46.5,37.2,29.95,SW,229,1.0,1.0,70,0.00,,,0.00,Wunderground v.1.15,2013-02-21 03:12:00,
2013-02-20 22:18:00,46.7,36.3,29.95,SW,229,1.0,3.0,67,0.00,,,0.00,Wunderground v.1.15,2013-02-21 03:18:00,
2013-02-20 22:24:00,46.8,35.6,29.95,SW,229,1.0,3.0,65,0.00,,,0.00,Wunderground v.1.15,2013-02-21 03:24:00,
2013-02-20 22:30:00,47.0,35.8,29.95,SW,229,0.0,3.0,65,0.00,,,0.00,Wunderground v.1.15,2013-02-21 03:30:00,
2013-02-20 22:36:00,47.0,36.2,29.95,SW,229,0.0,3.0,66,0.00,,,0.00,Wunderground v.1.15,2013-02-21 03:36:00,
2013-02-20 22:42:00,47.1,35.9,29.95,SW,229,0.0,3.0,65,0.00,,,0.00,Wunderground v.1.15,2013-02-21 03:42:00,
2013-02-20 22:48:00,47.1,35.9,29.95,SW,229,0.0,3.0,65,0.00,,,0.00,Wunderground v.1.15,2013-02-21 03:48:00,
2013-02-20 22:54:00,47.1,35.9,29.95,SW,229,0.0,3.0,65,0.00,,,0.00,Wunderground v.1.15,2013-02-21 03:54:00,
2013-02-20 22:59:00,47.0,35.8,29.95,SW,229,0.0,3.0,65,0.00,,,0.00,Wunderground v.1.15,2013-02-21 03:59:00,
2013-02-20 23:04:00,46.8,36.0,29.95,SW,229,0.0,3.0,66,0.00,,,0.00,Wunderground v.1.15,2013-02-21 04:04:00,
2013-02-20 23:09:00,46.7,36.3,29.95,SW,229,0.0,3.0,67,0.00,,,0.00,Wunderground v.1.15,2013-02-21 04:09:00,
2013-02-20 23:15:00,46.5,36.5,29.95,SW,229,0.0,3.0,68,0.00,,,0.00,Wunderground v.1.15,2013-02-21 04:15:00,
2013-02-20 23:21:00,46.1,36.5,29.95,SW,229,0.0,3.0,69,0.00,,,0.00,Wunderground v.1.15,2013-02-21 04:21:00,
2013-02-20 23:27:00,45.8,36.2,29.95,SW,229,0.0,3.0,69,0.00,,,0.00,Wunderground v.1.15,2013-02-21 04:27:00,
2013-02-20 23:33:00,45.2,36.4,29.95,SW,229,0.0,3.0,71,0.00,,,0.00,Wunderground v.1.15,2013-02-21 04:33:00,
2013-02-20 23:39:00,44.8,36.0,29.95,SW,229,0.0,3.0,71,0.00,,,0.00,Wunderground v.1.15,2013-02-21 04:39:00,
2013-02-20 23:45:00,44.3,35.8,29.95,SW,229,0.0,3.0,72,0.00,,,0.00,Wunderground v.1.15,2013-02-21 04:45:00,
2013-02-20 23:51:00,43.9,35.8,29.95,SW,229,0.0,3.0,73,0.00,,,0.00,Wunderground v.1.15,2013-02-21 04:51:00,
2013-02-20 23:57:00,43.3,35.9,29.95,SW,229,0.0,3.0,75,0.00,,,0.00,Wunderground v.1.15,2013-02-21 04:57:00,